SWA8241 KLAS-KLAX

Flight info

Callsign SWA8241
Flight time 0h 38m
Altitude 28000
Route RADYR2 BLAQQ SHTNR ANJLL4
Aircraft B738/M-SDE2E3FGHIRWXY/LB1

Departure

Time 2026-05-06 02:45
Airport Harry Reid International Airport (KLAS)

Arrival

Time 2026-05-06 03:23
Airport Los Angeles International Airport (KLAX)
Time Latitude Longitude Altitude Speed Heading
2026-05-06 02:18 36.07981 -115.14709 2119 ft 0 kts 57°
2026-05-06 02:30 36.07981 -115.14710 2118 ft 0 kts 57°
2026-05-06 02:31 36.07980 -115.14711 2118 ft 0 kts 57°
2026-05-06 02:31 36.07971 -115.14727 2118 ft 3 kts 57°
2026-05-06 02:31 36.07961 -115.14747 2122 ft 3 kts 83°
2026-05-06 02:32 36.07966 -115.14768 2120 ft 2 kts 148°
2026-05-06 02:32 36.07969 -115.14770 2119 ft 0 kts 148°
2026-05-06 02:37 36.07968 -115.14770 2119 ft 1 kts 148°
2026-05-06 02:37 36.07880 -115.14727 2119 ft 23 kts 170°
2026-05-06 02:37 36.07769 -115.14595 2119 ft 31 kts 95°
2026-05-06 02:38 36.07753 -115.14283 2119 ft 42 kts 90°
2026-05-06 02:38 36.07753 -115.13883 2124 ft 50 kts 90°
2026-05-06 02:38 36.07753 -115.13435 2126 ft 48 kts 90°
2026-05-06 02:38 36.07753 -115.13068 2121 ft 44 kts 90°
2026-05-06 02:39 36.07754 -115.12848 2120 ft 28 kts 90°
2026-05-06 02:39 36.07757 -115.12575 2117 ft 35 kts 94°
2026-05-06 02:39 36.07755 -115.12255 2119 ft 37 kts 89°
2026-05-06 02:39 36.07743 -115.12149 2121 ft 0 kts 126°
2026-05-06 02:43 36.07723 -115.12130 2122 ft 8 kts 151°
2026-05-06 02:44 36.07647 -115.12149 2125 ft 16 kts 246°
2026-05-06 02:44 36.07636 -115.12450 2120 ft 72 kts 272°
2026-05-06 02:44 36.07640 -115.13400 2122 ft 147 kts 270°
2026-05-06 02:44 36.07639 -115.14902 2245 ft 201 kts 271°
2026-05-06 02:45 36.07732 -115.16628 3260 ft 194 kts 269°
2026-05-06 02:45 36.07719 -115.18241 4412 ft 187 kts 267°
2026-05-06 02:45 36.07715 -115.19924 4887 ft 206 kts 269°
2026-05-06 02:45 36.07512 -115.21796 5102 ft 231 kts 259°
2026-05-06 02:46 36.07143 -115.23769 5722 ft 240 kts 248°
2026-05-06 02:46 36.06203 -115.25512 6467 ft 248 kts 230°
2026-05-06 02:46 36.04864 -115.26976 6906 ft 271 kts 207°
2026-05-06 02:46 36.03047 -115.27768 7576 ft 282 kts 200°
2026-05-06 02:47 36.01165 -115.28564 8330 ft 289 kts 200°
2026-05-06 02:47 35.99246 -115.29404 9143 ft 296 kts 198°
2026-05-06 02:47 35.97238 -115.30049 9950 ft 301 kts 192°
2026-05-06 02:47 35.95159 -115.30547 10609 ft 312 kts 190°
2026-05-06 02:48 35.92933 -115.31048 10816 ft 338 kts 190°
2026-05-06 02:48 35.90539 -115.31591 11094 ft 360 kts 190°
2026-05-06 02:48 35.88068 -115.32166 11675 ft 369 kts 190°
2026-05-06 02:48 35.85528 -115.32772 12427 ft 374 kts 191°
2026-05-06 02:49 35.82954 -115.33398 13155 ft 380 kts 190°
2026-05-06 02:49 35.80330 -115.34038 13793 ft 387 kts 190°
2026-05-06 02:49 35.77680 -115.34685 14537 ft 389 kts 190°
2026-05-06 02:49 35.75020 -115.35335 15281 ft 391 kts 190°
2026-05-06 02:50 35.72343 -115.35990 15970 ft 395 kts 190°
2026-05-06 02:50 35.69631 -115.36653 16648 ft 399 kts 190°
2026-05-06 02:50 35.66891 -115.37324 17323 ft 402 kts 190°
2026-05-06 02:50 35.64129 -115.37999 18013 ft 406 kts 190°
2026-05-06 02:51 35.61378 -115.38660 18614 ft 409 kts 188°
2026-05-06 02:51 35.58533 -115.38849 19162 ft 410 kts 174°
2026-05-06 02:51 35.55676 -115.38562 19756 ft 413 kts 172°
2026-05-06 02:51 35.52795 -115.38253 20321 ft 416 kts 173°
2026-05-06 02:52 35.49891 -115.38001 20869 ft 420 kts 174°
2026-05-06 02:52 35.46954 -115.37785 21419 ft 424 kts 174°
2026-05-06 02:52 35.43989 -115.37959 21904 ft 433 kts 191°
2026-05-06 02:52 35.42078 -115.38739 22256 ft 438 kts 204°
2026-05-06 02:53 35.38484 -115.41043 23032 ft 442 kts 207°
2026-05-06 02:53 35.35760 -115.42851 23525 ft 447 kts 207°
2026-05-06 02:53 35.33007 -115.44666 23901 ft 452 kts 206°
2026-05-06 02:53 35.30217 -115.46482 24247 ft 456 kts 206°
2026-05-06 02:54 35.28348 -115.47687 24480 ft 460 kts 206°
2026-05-06 02:54 35.25501 -115.49511 24858 ft 464 kts 205°
2026-05-06 02:54 35.22621 -115.51349 25219 ft 468 kts 205°
2026-05-06 02:54 35.19719 -115.53198 25558 ft 472 kts 205°
2026-05-06 02:55 35.16789 -115.55065 25891 ft 476 kts 205°
2026-05-06 02:55 35.13825 -115.56959 26225 ft 481 kts 206°
2026-05-06 02:55 35.11101 -115.59269 26610 ft 486 kts 224°
2026-05-06 02:55 35.08770 -115.62269 27034 ft 488 kts 227°
2026-05-06 02:56 35.06468 -115.65325 27385 ft 491 kts 226°
2026-05-06 02:56 35.04132 -115.68405 27616 ft 497 kts 226°
2026-05-06 02:56 35.01758 -115.71495 27950 ft 499 kts 226°
2026-05-06 02:56 34.99359 -115.74581 27910 ft 502 kts 225°
2026-05-06 02:57 34.96949 -115.77655 27909 ft 500 kts 225°
2026-05-06 02:57 34.94547 -115.80706 27898 ft 496 kts 225°
2026-05-06 02:57 34.92150 -115.83745 27913 ft 497 kts 225°
2026-05-06 02:57 34.89755 -115.86780 27921 ft 498 kts 225°
2026-05-06 02:58 34.87349 -115.89830 27916 ft 499 kts 225°
2026-05-06 02:58 34.84937 -115.92887 27901 ft 500 kts 225°
2026-05-06 02:58 34.82552 -115.95908 27894 ft 501 kts 225°
2026-05-06 02:58 34.80136 -115.98967 27919 ft 500 kts 225°
2026-05-06 02:59 34.77749 -116.01984 27890 ft 489 kts 225°
2026-05-06 02:59 34.75408 -116.04952 27891 ft 485 kts 225°
2026-05-06 02:59 34.73075 -116.07920 27885 ft 487 kts 225°
2026-05-06 02:59 34.70728 -116.10910 27910 ft 489 kts 226°
2026-05-06 03:00 34.68371 -116.13914 27901 ft 492 kts 226°
2026-05-06 03:00 34.66002 -116.16930 27895 ft 493 kts 226°
2026-05-06 03:00 34.63626 -116.19951 27910 ft 494 kts 226°
2026-05-06 03:00 34.61258 -116.22958 27894 ft 490 kts 226°
2026-05-06 03:01 34.58911 -116.25934 27898 ft 487 kts 226°
2026-05-06 03:01 34.56570 -116.28900 27911 ft 487 kts 226°
2026-05-06 03:01 34.54255 -116.31831 27910 ft 487 kts 225°
2026-05-06 03:01 34.51909 -116.34798 27907 ft 487 kts 226°
2026-05-06 03:02 34.49581 -116.37740 27884 ft 479 kts 226°
2026-05-06 03:02 34.47289 -116.40637 27506 ft 473 kts 226°
2026-05-06 03:02 34.45029 -116.43489 27092 ft 466 kts 226°
2026-05-06 03:02 34.42792 -116.46309 26645 ft 460 kts 226°
2026-05-06 03:03 34.40845 -116.49337 26159 ft 454 kts 243°
2026-05-06 03:03 34.39488 -116.52740 25785 ft 446 kts 246°
2026-05-06 03:03 34.38167 -116.56135 25291 ft 443 kts 246°
2026-05-06 03:03 34.36832 -116.59481 24820 ft 439 kts 245°
2026-05-06 03:04 34.35482 -116.62788 24380 ft 436 kts 244°
2026-05-06 03:04 34.34130 -116.66058 24026 ft 430 kts 244°
2026-05-06 03:04 34.32809 -116.69258 23701 ft 423 kts 245°
2026-05-06 03:04 34.31532 -116.72412 23195 ft 421 kts 245°
2026-05-06 03:05 34.30258 -116.75591 22701 ft 418 kts 245°
2026-05-06 03:05 34.28995 -116.78747 22240 ft 414 kts 245°
2026-05-06 03:05 34.27741 -116.81872 21759 ft 411 kts 245°
2026-05-06 03:05 34.26497 -116.84964 21316 ft 406 kts 245°
2026-05-06 03:06 34.25264 -116.88023 20885 ft 403 kts 245°
2026-05-06 03:06 34.24041 -116.91052 20444 ft 399 kts 245°
2026-05-06 03:06 34.22827 -116.94057 20019 ft 396 kts 245°
2026-05-06 03:06 34.21620 -116.97038 19587 ft 393 kts 245°
2026-05-06 03:07 34.20508 -117.00036 19161 ft 389 kts 251°
2026-05-06 03:07 34.19673 -117.03085 18760 ft 385 kts 255°
2026-05-06 03:07 34.18915 -117.06175 18344 ft 382 kts 255°
2026-05-06 03:07 34.18142 -117.09238 17876 ft 379 kts 255°
2026-05-06 03:08 34.17341 -117.12263 17420 ft 376 kts 254°
2026-05-06 03:08 34.16532 -117.15251 16998 ft 373 kts 253°
2026-05-06 03:08 34.15719 -117.18214 16554 ft 370 kts 253°
2026-05-06 03:08 34.14909 -117.21148 16181 ft 367 kts 253°
2026-05-06 03:09 34.14105 -117.24061 15779 ft 364 kts 253°
2026-05-06 03:09 34.13308 -117.26952 15379 ft 361 kts 253°
2026-05-06 03:09 34.12520 -117.29812 14983 ft 358 kts 253°
2026-05-06 03:09 34.11735 -117.32656 14594 ft 356 kts 253°
2026-05-06 03:10 34.10956 -117.35478 14196 ft 353 kts 253°
2026-05-06 03:10 34.10203 -117.38247 13791 ft 352 kts 254°
2026-05-06 03:10 34.09495 -117.41068 13313 ft 351 kts 255°
2026-05-06 03:10 34.08802 -117.43887 12858 ft 350 kts 255°
2026-05-06 03:11 34.08107 -117.46691 12427 ft 348 kts 255°
2026-05-06 03:11 34.07409 -117.49486 12001 ft 346 kts 255°
2026-05-06 03:11 34.06711 -117.52242 11725 ft 340 kts 255°
2026-05-06 03:11 34.06019 -117.54947 11452 ft 334 kts 254°
2026-05-06 03:12 34.05337 -117.57609 11199 ft 329 kts 255°
2026-05-06 03:12 34.04666 -117.60232 10941 ft 326 kts 255°
2026-05-06 03:12 34.04011 -117.62790 10685 ft 321 kts 255°
2026-05-06 03:12 34.03356 -117.65348 10431 ft 317 kts 254°
2026-05-06 03:13 34.02709 -117.67868 10190 ft 313 kts 254°
2026-05-06 03:13 34.02094 -117.70365 9931 ft 308 kts 259°
2026-05-06 03:13 34.01792 -117.72863 9936 ft 294 kts 266°
2026-05-06 03:13 34.01597 -117.75301 9397 ft 300 kts 266°
2026-05-06 03:14 34.01394 -117.77827 8917 ft 304 kts 266°
2026-05-06 03:14 34.01171 -117.80375 8527 ft 305 kts 265°
2026-05-06 03:14 34.00932 -117.82909 8164 ft 304 kts 265°
2026-05-06 03:14 34.00688 -117.85438 7803 ft 303 kts 264°
2026-05-06 03:15 34.00441 -117.87957 7447 ft 302 kts 264°
2026-05-06 03:15 34.00194 -117.90462 7106 ft 300 kts 265°
2026-05-06 03:15 33.99950 -117.92953 6761 ft 298 kts 265°
2026-05-06 03:15 33.99708 -117.95418 6444 ft 295 kts 264°
2026-05-06 03:16 33.99471 -117.97832 6117 ft 292 kts 264°
2026-05-06 03:16 33.99233 -118.00250 5744 ft 290 kts 264°
2026-05-06 03:16 33.98999 -118.02663 5387 ft 289 kts 265°
2026-05-06 03:16 33.98813 -118.05074 5018 ft 289 kts 265°
2026-05-06 03:17 33.98598 -118.07483 4682 ft 287 kts 263°
2026-05-06 03:17 33.98366 -118.09747 4975 ft 256 kts 263°
2026-05-06 03:17 33.98147 -118.11824 4701 ft 245 kts 263°
2026-05-06 03:17 33.97936 -118.13828 4427 ft 235 kts 263°
2026-05-06 03:18 33.97735 -118.15743 4116 ft 226 kts 263°
2026-05-06 03:18 33.97543 -118.17582 3826 ft 216 kts 263°
2026-05-06 03:18 33.97361 -118.19331 3541 ft 206 kts 263°
2026-05-06 03:18 33.97188 -118.21000 3276 ft 195 kts 263°
2026-05-06 03:19 33.97024 -118.22575 3025 ft 185 kts 263°
2026-05-06 03:19 33.96870 -118.24058 2777 ft 176 kts 263°
2026-05-06 03:19 33.96721 -118.25488 2546 ft 167 kts 262°
2026-05-06 03:19 33.96582 -118.26819 2330 ft 152 kts 262°
2026-05-06 03:20 33.96331 -118.29249 1931 ft 147 kts 262°
2026-05-06 03:20 33.96205 -118.30480 1749 ft 150 kts 261°
2026-05-06 03:20 33.96076 -118.31727 1556 ft 148 kts 262°
2026-05-06 03:21 33.95953 -118.32930 1365 ft 144 kts 262°
2026-05-06 03:21 33.95831 -118.34115 1163 ft 143 kts 262°
2026-05-06 03:21 33.95710 -118.35307 974 ft 142 kts 262°
2026-05-06 03:21 33.95588 -118.36474 774 ft 139 kts 261°
2026-05-06 03:22 33.95470 -118.37640 592 ft 140 kts 261°
2026-05-06 03:22 33.95349 -118.38809 381 ft 143 kts 261°
2026-05-06 03:22 33.95228 -118.39986 213 ft 142 kts 263°
2026-05-06 03:22 33.95119 -118.41081 121 ft 81 kts 263°
2026-05-06 03:23 33.95078 -118.41481 125 ft 39 kts 263°
2026-05-06 03:23 33.95043 -118.41839 125 ft 49 kts 263°
2026-05-06 03:23 33.94995 -118.42294 125 ft 49 kts 263°
2026-05-06 03:23 33.94962 -118.42621 125 ft 29 kts 264°
2026-05-06 03:24 33.94916 -118.42708 123 ft 10 kts 182°
2026-05-06 03:24 33.94793 -118.42737 123 ft 24 kts 210°
2026-05-06 03:24 33.94643 -118.42752 124 ft 22 kts 124°
2026-05-06 03:24 33.94650 -118.42568 125 ft 25 kts 80°
2026-05-06 03:25 33.94677 -118.42299 123 ft 39 kts 82°
2026-05-06 03:25 33.94711 -118.41976 125 ft 28 kts 83°
2026-05-06 03:25 33.94660 -118.41812 121 ft 17 kts 142°
2026-05-06 03:25 33.94662 -118.41626 122 ft 30 kts 83°
2026-05-06 03:26 33.94670 -118.41522 125 ft 12 kts 85°
2026-05-06 03:26 33.94674 -118.41453 125 ft 0 kts 91°
2026-05-06 03:26 33.94674 -118.41450 125 ft 0 kts 91°
2026-05-06 03:26 33.94675 -118.41427 121 ft 12 kts 83°
2026-05-06 03:27 33.94668 -118.41289 119 ft 13 kts 137°
2026-05-06 03:27 33.94532 -118.41260 124 ft 18 kts 172°
2026-05-06 03:27 33.94459 -118.41192 125 ft 14 kts 89°
2026-05-06 03:27 33.94461 -118.41150 122 ft 0 kts 83°